This is the latest recevied weather packets stored in our database for station/object PA3DZX-13. If no packets are shown the sender has not sent any weather packets the latest 10 day(s).
| Time | Temp. | Humidity | Pressure | Rain* | Wind** | Luminosity | Snow |
|---|---|---|---|---|---|---|---|
| 1787952050 | 15° C | 89% | 1009.6 hPa | 0 mm | - | - | - |
| 1787951150 | 15° C | 88% | 1009.7 hPa | 0 mm | - | - | - |
| 1787950249 | 15° C | 89% | 1009.7 hPa | 0 mm | - | - | - |
| 1787949349 | 15° C | 90% | 1009.6 hPa | 0 mm | - | - | - |
| 1787948449 | 15° C | 90% | 1009.4 hPa | 0 mm | - | - | - |
| 1787947549 | 15° C | 90% | 1009.2 hPa | 0 mm | - | - | - |
| 1787946648 | 15° C | 91% | 1008.9 hPa | 0 mm | - | - | - |
| 1787945748 | 15° C | 91% | 1008.6 hPa | 0 mm | - | - | - |
| 1787944847 | 15° C | 91% | 1008.4 hPa | 0 mm | - | - | - |
| 1787943947 | 15° C | 91% | 1008.5 hPa | 0 mm | - | - | - |
| 1787943046 | 15° C | 91% | 1008.4 hPa | 0 mm | - | - | - |
| 1787942147 | 15° C | 91% | 1008.2 hPa | 0 mm | - | - | - |
| 1787941246 | 15° C | 90% | 1008.2 hPa | 0.51 mm | - | - | - |
| 1787940347 | 15.56° C | 82% | 1008 hPa | 1.27 mm | - | - | - |
| 1787939446 | 16.67° C | 79% | 1007.8 hPa | 0 mm | - | - | - |
| 1787938546 | 16.67° C | 74% | 1007.7 hPa | 0 mm | - | - | - |
| 1787937645 | 16.67° C | 76% | 1007.7 hPa | 0.51 mm | - | - | - |
| 1787936745 | 17.78° C | 72% | 1007.8 hPa | 0 mm | - | - | - |
| 1787935845 | 17.78° C | 73% | 1007.9 hPa | 0 mm | - | - | - |
| 1787934945 | 17.78° C | 71% | 1008 hPa | 0.51 mm | - | - | - |
| 1787934044 | 18.89° C | 70% | 1007.8 hPa | 0 mm | - | - | - |
| 1787933145 | 18.89° C | 69% | 1007.9 hPa | 0 mm | - | - | - |
| 1787932244 | 18.89° C | 67% | 1007.8 hPa | 0 mm | - | - | - |
| 1787931343 | 20° C | 69% | 1007.6 hPa | 0 mm | - | - | - |
| 1787930442 | 18.89° C | 72% | 1007.4 hPa | 1.27 mm | - | - | - |
* Rain latest hour (hover to see other rain measurements)
** Current wind speed in m/s (hover to see current wind gust speed)